Content
SEND FEEDBACK

Daily
Averages
Monthly
Summary
United States of America

BARBER, IDAHO


Home > North America > United States > Idaho
Elevation: 3274 feet     Latitude: 43 36N     Longitude: 115 55W

WEATHER
 
SELECT A DAY
Number of Records: 184,699;   Date Range: 1/1/95 - 8/13/14
 
SHARE

PRINT THIS DATA

[ ← Previous Day ]
WEATHER ALMANAC - FEBRUARY 13, 2013
[ Next Day → ]
[ °C ]   °F
Weather ElementAverageHighLow
Temperature40.3 °F48.9 °F (2:53 pm)30.9 °F (4:53 am)
Dewpoint29.3 °F30.9 °F (9:53 am)26.1 °F (3:53 am)
Humidity66.2 %82 % (4:53 am)48 % (3:53 pm)
Barometer30.32 in30.36 in (1:53 am)30.27 in (2:53 pm)
Wind Speed5.4 mph13.8 mph (2:53 pm)
Weather ElementAverage
Visibility10 mi
Wind DirectionSSW (187.8 °)

Weather ElementTotal
Precipitation---
Heating Degree Days25.1 (Base 65)
Averaged from 23 records on February 13, 2013
WEATHER CONDITIONS BREAKOUT
WIND DIRECTION BREAKOUT
WEATHER BY HOUR - FEBRUARY 13, 2013
[ °C ]   °F
Local TimeTemperatureDewpointHumidityBarometerVisibilityWind DirectionWind SpeedGust SpeedPrecipitationEventsConditions
1:53 AM34.0 °F28.0 °F79 %30.36 in10.0 miESE (110°)3.5 mphOvercast
2:53 AM34.0 °F27.0 °F75 %30.35 in10.0 miSE (130°)4.6 mphMostly Cloudy
3:53 AM32.0 °F26.1 °F79 %30.34 in10.0 miCalmPartly Cloudy
4:53 AM30.9 °F26.1 °F82 %30.33 in10.0 miCalmPartly Cloudy
5:53 AM32.0 °F27.0 °F82 %30.34 in10.0 miSE (140°)3.5 mphMostly Cloudy
6:53 AM34.0 °F28.0 °F79 %30.34 in10.0 miSE (130°)3.5 mphOvercast
7:53 AM33.1 °F28.0 °F82 %30.35 in10.0 miSE (130°)4.6 mphMostly Cloudy
8:53 AM36.0 °F28.9 °F76 %30.36 in10.0 miCalmOvercast
9:53 AM39.0 °F30.9 °F73 %30.35 in10.0 miCalmOvercast
10:53 AM42.1 °F30.9 °F65 %30.34 in10.0 miCalmOvercast
11:53 AM46.0 °F30.9 °F56 %30.34 in10.0 miVariable4.6 mphMostly Cloudy
12:53 PM48.0 °F30.9 °F52 %30.31 in10.0 miNW (310°)6.9 mphMostly Cloudy
1:53 PM48.0 °F30.9 °F52 %30.30 in10.0 miWNW (290°)8.1 mphMostly Cloudy
2:53 PM48.9 °F30.9 °F50 %30.27 in10.0 miNW (310°)13.8 mphScattered Clouds
3:53 PM48.9 °F30.0 °F48 %30.28 in10.0 miNW (320°)13.8 mphClear
4:53 PM48.9 °F30.0 °F48 %30.27 in10.0 miNNW (340°)9.2 mphMostly Cloudy
5:53 PM46.0 °F30.0 °F54 %30.28 in10.0 miNW (320°)8.1 mphMostly Cloudy
6:53 PM45.0 °F30.0 °F56 %30.28 in10.0 miNW (320°)4.6 mphOvercast
7:53 PM43.0 °F30.0 °F60 %30.29 in10.0 miNW (310°)3.5 mphOvercast
8:53 PM43.0 °F30.0 °F60 %30.29 in10.0 miWest (280°)6.9 mphPartly Cloudy
9:53 PM39.9 °F30.0 °F68 %30.30 in10.0 miWest (280°)10.4 mphMostly Cloudy
10:53 PM37.9 °F30.0 °F73 %30.32 in10.0 miNW (310°)9.2 mphOvercast
11:53 PM37.0 °F28.9 °F73 %30.32 in10.0 miWNW (290°)4.6 mphClear
Hourly data recorded from KBOI, located miles away from Barber, Idaho







STORIES FROM OUR PARTNERS